Gambell, AK

4:04 AM AKST on December 12, 2017 (GMT -0900)
Gambell

Weather History for PAGM - July, 2013

Change the Weather History Date:

Monday, July 8, 2013

  Actual Average Record
Temperature  
Mean Temperature 42 °F -  
Max Temperature 48 °F 46 °F 57 °F (2010)
Min Temperature 37 °F 40 °F 37 °F (2013)
Degree Days  
Heating Degree Days 22    
Moisture  
Dew Point 40 °F    
Average Humidity 89    
Maximum Humidity 100    
Minimum Humidity 76    
Precipitation  
Precipitation 0.00 in - - ()
Sea Level Pressure  
Sea Level Pressure 29.86 in    
Wind  
Wind Speed 4 mph (WNW)    
Max Wind Speed 16 mph    
Max Gust Speed -    
Visibility 3 miles    
Events      
Averages and records for this station are not official NWS values.
T = Trace of Precipitation, MM = Missing Value Source: NWS Daily Summary

Daily Weather History Graph

Daily Weather History Graph

Search for Another Location

Airport or City:

Trip Planner

Search our weather history database for the weather conditions in past years. The results will help you decide how hot, cold, wet, or windy it might be!

Date:

Astronomy

Jul. 08, 2013 Rise Set
Actual Time 5:29 AM AKDT 1:33 AM AKDT
Civil Twilight 4:04 AM AKDT 2:59 AM AKDT
Nautical Twilight Sun does not rise Sun does not rise
Astronomical Twilight Sun does not rise Sun does not rise
Moon 7:07 AM AKDT (7/8) 12:14 AM AKDT (7/8)
Length of Visible Light 22h 55m
Length of Day
20h 04m
New Moon, 0% of the Moon is Illuminated
Jul 8
New Moon
Jul 15
First Quarter
Jul 22
Full
Jul 29
Last Quarter
Aug 6
New

Hourly Weather History & Observations

Time (AKDT) Temp. Windchill Dew Point Humidity Pressure Visibility Wind Dir Wind Speed Gust Speed Precip Events Conditions
12:16 AM 42.8 °F - 39.2 °F 87% 29.77 in 0.2 mi Calm Calm - N/A   Overcast
12:36 AM 41.0 °F - 39.2 °F 93% 29.77 in 0.2 mi Calm Calm - N/A   Overcast
12:56 AM 41.0 °F - 37.4 °F 87% 29.77 in 0.2 mi Calm Calm - N/A   Overcast
1:16 AM 41.0 °F - 39.2 °F 93% 29.78 in 0.2 mi Calm Calm - N/A   Overcast
1:36 AM 41.0 °F - 39.2 °F 93% 29.78 in 3.0 mi Calm Calm - N/A   Overcast
1:56 AM 41.0 °F 39.0 °F 39.2 °F 93% 29.78 in 0.8 mi North 3.5 mph - N/A   Overcast
2:16 AM 41.0 °F 37.1 °F 39.2 °F 93% 29.78 in 0.2 mi NNW 5.8 mph - N/A   Overcast
2:36 AM 41.0 °F 39.0 °F 39.2 °F 93% 29.79 in 0.2 mi NNW 3.5 mph - N/A   Overcast
2:56 AM 41.0 °F - 39.2 °F 93% 29.79 in 0.2 mi Calm Calm - N/A   Overcast
3:16 AM 41.0 °F 39.0 °F 39.2 °F 93% 29.79 in 0.2 mi NNW 3.5 mph - N/A   Overcast
3:36 AM 39.2 °F 37.0 °F 37.4 °F 93% 29.79 in 0.2 mi NNE 3.5 mph - N/A   Overcast
3:56 AM 39.2 °F 35.9 °F 37.4 °F 93% 29.79 in 0.2 mi North 4.6 mph - N/A   Overcast
4:16 AM 39.2 °F 35.0 °F 37.4 °F 93% 29.79 in 0.2 mi North 5.8 mph - N/A   Overcast
4:36 AM 39.2 °F - 37.4 °F 93% 29.79 in 0.2 mi Calm Calm - N/A   Overcast
4:56 AM 39.2 °F 37.0 °F 37.4 °F 93% 29.79 in 0.2 mi NNW 3.5 mph - N/A   Overcast
5:16 AM 39.2 °F - 37.4 °F 93% 29.79 in 0.2 mi Calm Calm - N/A   Overcast
5:36 AM 39.2 °F 37.0 °F 37.4 °F 93% 29.79 in 0.2 mi North 3.5 mph - N/A   Overcast
5:56 AM 39.2 °F - 37.4 °F 93% 29.80 in 0.2 mi Calm Calm - N/A   Overcast
6:16 AM 37.4 °F - 35.6 °F 93% 29.80 in 0.2 mi Calm Calm - N/A   Overcast
6:36 AM 37.4 °F - 35.6 °F 93% 29.80 in 0.2 mi Calm Calm - N/A   Overcast
6:56 AM 37.4 °F - 37.4 °F 100% 29.80 in 0.2 mi Calm Calm - N/A   Overcast
7:16 AM 39.2 °F - 37.4 °F 93% 29.80 in 0.2 mi Calm Calm - N/A   Overcast
7:36 AM 39.2 °F - 37.4 °F 93% 29.80 in 0.2 mi Calm Calm - N/A   Overcast
7:56 AM 41.0 °F - 39.2 °F 93% 29.81 in 0.2 mi Calm Calm - N/A   Overcast
8:16 AM 41.0 °F 38.0 °F 39.2 °F 93% 29.81 in 0.2 mi WNW 4.6 mph - N/A   Overcast
8:36 AM 41.0 °F 39.0 °F 39.2 °F 93% 29.81 in 0.2 mi NNW 3.5 mph - N/A   Overcast
8:56 AM 41.0 °F - 39.2 °F 93% 29.82 in 0.2 mi Calm Calm - N/A   Overcast
9:16 AM 41.0 °F - 39.2 °F 93% 29.82 in 0.2 mi Calm Calm - N/A   Overcast
9:36 AM 41.0 °F - 39.2 °F 93% 29.82 in 0.2 mi Calm Calm - N/A   Overcast
9:56 AM 41.0 °F - 39.2 °F 93% 29.83 in 0.2 mi Calm Calm - N/A   Overcast
10:16 AM 41.0 °F 39.0 °F 39.2 °F 93% 29.83 in 0.2 mi SW 3.5 mph - N/A   Overcast
10:36 AM 41.0 °F 39.0 °F 39.2 °F 93% 29.83 in 0.2 mi SW 3.5 mph - N/A   Overcast
10:56 AM 41.0 °F - 39.2 °F 93% 29.84 in 0.2 mi Calm Calm - N/A   Overcast
11:16 AM 42.8 °F - 41.0 °F 93% 29.84 in 0.2 mi Calm Calm - N/A   Overcast
11:36 AM 44.6 °F 40.7 °F 42.8 °F 93% 29.84 in 10.0 mi NE 6.9 mph - N/A   Scattered Clouds
11:56 AM 44.6 °F 39.7 °F 41.0 °F 87% 29.84 in 10.0 mi NNE 9.2 mph - N/A   Clear
12:16 PM 44.6 °F 38.8 °F 41.0 °F 87% 29.84 in 10.0 mi NNE 11.5 mph - N/A   Clear
12:36 PM 42.8 °F 35.8 °F 39.2 °F 87% 29.84 in 10.0 mi NNE 13.8 mph - N/A   Clear
12:56 PM 42.8 °F 35.1 °F 39.2 °F 87% 29.85 in 10.0 mi NE 16.1 mph - N/A   Mostly Cloudy
1:16 PM 42.8 °F 35.8 °F 39.2 °F 87% 29.86 in 10.0 mi NNE 13.8 mph - N/A   Scattered Clouds
1:36 PM 42.8 °F 36.6 °F 39.2 °F 87% 29.87 in 10.0 mi NNE 11.5 mph - N/A   Clear
1:56 PM 42.8 °F 37.5 °F 39.2 °F 87% 29.86 in 10.0 mi NNE 9.2 mph - N/A   Clear
2:16 PM 44.6 °F 39.7 °F 39.2 °F 81% 29.87 in 10.0 mi NNE 9.2 mph - N/A   Clear
2:36 PM 48.2 °F - 41.0 °F 76% 29.88 in 10.0 mi North 6.9 mph - N/A   Clear
2:56 PM 48.2 °F - 41.0 °F 76% 29.88 in 10.0 mi North 6.9 mph - N/A   Clear
3:16 PM 48.2 °F - 41.0 °F 76% 29.88 in 10.0 mi North 8.1 mph - N/A   Clear
3:36 PM 46.4 °F 43.5 °F 39.2 °F 76% 29.89 in 0.5 mi NW 5.8 mph - N/A   Overcast
3:56 PM 44.6 °F 42.2 °F 39.2 °F 81% 29.89 in 0.2 mi NW 4.6 mph - N/A   Overcast
4:16 PM 44.6 °F 42.2 °F 39.2 °F 81% 29.90 in 0.2 mi WNW 4.6 mph - N/A   Overcast
4:36 PM 46.4 °F 44.3 °F 39.2 °F 76% 29.90 in 8.0 mi WNW 4.6 mph - N/A   Mostly Cloudy
4:56 PM 44.6 °F 42.2 °F 39.2 °F 81% 29.90 in 4.0 mi WSW 4.6 mph - N/A   Partly Cloudy
5:16 PM 46.4 °F 42.9 °F 41.0 °F 81% 29.90 in 10.0 mi SW 6.9 mph - N/A   Clear
5:36 PM 44.6 °F 40.7 °F 39.2 °F 81% 29.91 in 1.0 mi SW 6.9 mph - N/A   Mostly Cloudy
5:56 PM 44.6 °F 40.7 °F 41.0 °F 87% 29.91 in 0.5 mi SSW 6.9 mph - N/A   Overcast
6:16 PM 44.6 °F 40.7 °F 41.0 °F 87% 29.92 in 0.5 mi SW 6.9 mph - N/A   Overcast
6:36 PM 44.6 °F 40.7 °F 42.8 °F 93% 29.92 in 0.2 mi SSW 6.9 mph - N/A   Overcast
6:56 PM 44.6 °F 41.4 °F 42.8 °F 93% 29.92 in 0.5 mi SSW 5.8 mph - N/A   Overcast
7:16 PM 46.4 °F 45.2 °F 42.8 °F 87% 29.93 in 10.0 mi SSW 3.5 mph - N/A   Mostly Cloudy
7:36 PM 48.2 °F - 42.8 °F 82% 29.93 in 10.0 mi WSW 5.8 mph - N/A   Scattered Clouds
7:56 PM 48.2 °F - 44.6 °F 87% 29.93 in 10.0 mi WSW 5.8 mph - N/A   Scattered Clouds
8:16 PM 48.2 °F - 44.6 °F 87% 29.93 in 10.0 mi SW 5.8 mph - N/A   Mostly Cloudy
8:36 PM 46.4 °F 42.4 °F 44.6 °F 93% 29.94 in 1.0 mi WSW 8.1 mph - N/A   Overcast
8:56 PM 46.4 °F 42.9 °F 44.6 °F 93% 29.94 in 0.2 mi WSW 6.9 mph - N/A   Overcast
9:16 PM 46.4 °F 42.9 °F 42.8 °F 87% 29.94 in 0.2 mi WSW 6.9 mph - N/A   Overcast
9:36 PM 46.4 °F 42.9 °F 42.8 °F 87% 29.95 in 0.2 mi WSW 6.9 mph - N/A   Overcast
9:56 PM 44.6 °F 39.7 °F 42.8 °F 93% 29.95 in 0.2 mi WSW 9.2 mph - N/A   Overcast
10:16 PM 44.6 °F 38.8 °F 42.8 °F 93% 29.95 in 0.5 mi WSW 11.5 mph - N/A   Overcast
10:36 PM 44.6 °F 39.2 °F 42.8 °F 93% 29.96 in 0.5 mi SW 10.4 mph - N/A   Overcast
10:56 PM 44.6 °F 39.7 °F 42.8 °F 93% 29.96 in 0.5 mi SW 9.2 mph - N/A   Overcast
11:16 PM 44.6 °F 38.8 °F 42.8 °F 93% 29.96 in 0.8 mi SSW 11.5 mph - N/A   Overcast
11:36 PM 44.6 °F 38.8 °F 42.8 °F 93% 29.97 in 0.8 mi SW 11.5 mph - N/A   Overcast
11:56 PM 44.6 °F 38.4 °F 42.8 °F 93% 29.97 in 1.8 mi WSW 12.7 mph - N/A   Overcast